SCP
-0 -0 -0 -0 -0 -0 -0 -0 -0 -0 -0 -0 -0 -0 -0 -0 -0 -0 -0 -0 -0 -0 -0 -0 -0 -0 0 0 0 0 0 0 0 -0 -0 -0 -0 -0 -0 -0 -0 -0 0
-0 -0 -0 -0 -0 -0 -0 -0 -0 -0 -0 -0 -0 -0 -0 -0 -0 -0 -0 -0 -0 -0 -0 -0 -0 0 -0 -0 0 0 0 -0 -0 -0 -0 0 0 0 0 -0 -0 -0 0
-0 -0 -0 -0 -0 -0 -0 -0 -0 -0 -0 -0 -0 -0 -0 -0 -0 -0 -0 0 0 0 0 0 0 0 0 0 0 -0 -0 -0 -0 -0 -0 -0 0 0 0 0 0 0 0
-0 -0 -0 -0 -0 -0 -0 -0 -0 -0 -0 -0 -0 -0 -0 -0 -0 -0 0 0 0 0 0 0 0 0 0 0 0 0 0 0 0 -0 0 0 0 0 0 0 0 0 0
-0 -0 -0 -0 -0 -0 -0 -0 -0 -0 -0 -0 -0 -0 -0 -0 0 0 0 0 0 0 0 0 0 0 0 0 0 0 0 0 0 0 0 0 0 0 0 0 0 0 0
-0 -0 -0 -0 -0 -0 -0 -0 -0 -0 -0 -0 -0 -0 -0 0 0 0 0 0 0 0 0 0 0 0 0 0 0 0 0 0 0 0 0 0 0 0 0 0 0 0 1
-0 -0 -0 -0 -0 -0 -0 -0 -0 -0 -0 -0 -0 -0 0 0 0 0 0 0 0 0 0 0 0 0 0 0 0 0 0 0 0 0 0 0 0 0 0 0 0 0 0
-0 -0 -0 -0 -0 -0 -0 -0 -0 -0 -0 -0 -0 0 0 0 0 0 0 0 0 0 0 0 0 0 0 0 0 0 0 0 0 0 0 0 0 0 0 0 0 0 0
0 -0 -0 -0 -0 -0 -0 -0 -0 -0 -0 -0 -0 0 0 0 0 0 0 0 0 0 0 0 0 0 0 0 0 0 0 0 0 0 0 0 0 0 0 0 0 0 0
-0 -0 -0 -0 -0 -0 -0 -0 -0 -0 -0 -0 0 0 0 0 0 0 0 0 0 0 0 0 0 0 0 0 0 0 0 0 0 0 0 0 0 0 0 0 0 0 0
-0 0 0 -0 -0 -0 -0 -0 -0 -0 0 0 0 0 0 0 0 0 0 0 0 0 0 0 0 0 0 0 0 0 0 0 0 0 0 0 0 0 0 0 0 0 0
-0 -0 -0 0 -0 -0 -0 -0 -0 0 0 0 0 0 0 0 0 0 0 0 0 0 0 0 0 0 0 0 0 0 0 0 0 0 0 0 0 0 0 0 0 0 0
-0 -0 -0 -0 -0 -0 -0 0 0 0 0 0 0 0 0 0 0 0 0 0 0 0 0 0 0 0 0 0 0 0 0 0 0 0 0 0 0 0 0 0 0 0 0
-0 -0 0 -0 0 -0 0 0 0 0 0 0 0 0 0 0 0 0 0 0 0 0 0 0 0 0 0 0 0 0 0 0 0 0 0 0 0 0 0 0 0 0 0
0 -0 -0 -0 -0 -0 -0 0 0 0 0 0 0 0 0 0 0 0 0 0 0 0 0 0 0 0 0 0 0 0 0 0 0 0 0 0 0 0 0 0 0 0 0
0 -0 -0 -0 -0 -0 -0 -0 0 0 0 0 0 0 0 0 0 0 0 0 0 0 0 0 0 0 0 0 0 0 0 0 0 0 0 0 0 0 0 0 0 0 0
0 -0 -0 -0 -0 -0 -0 -0 -0 0 0 0 0 0 0 0 0 0 0 0 0 0 0 0 0 0 0 0 0 0 0 0 0 0 0 0 0 0 0 0 0 0 0
0 -0 -0 -0 -0 -0 -0 -0 0 0 0 0 0 0 0 0 0 0 0 0 0 0 0 0 0 0 0 0 0 0 0 0 0 0 0 0 0 0 0 0 0 0 0
-0 -0 -0 -0 -0 -0 -0 0 0 0 0 0 0 0 0 0 0 0 0 0 0 0 0 0 0 0 0 0 0 0 0 0 0 0 0 0 0 0 0 0 0 0 0
-0 -0 -0 -0 -0 -0 0 0 0 1 1 1 0 0 0 0 0 0 0 0 0 0 0 0 0 0 0 0 0 0 0 0 0 0 0 0 0 0 0 0 0 0 0
-0 -0 -0 -0 0 0 1 1 1 1 1 1 0 0 0 0 0 0 0 0 0 0 0 0 0 0 0 0 0 0 0 0 0 0 0 0 0 0 0 0 0 0 0
0 0 0 0 0 1 1 1 1 1 1 1 0 0 0 0 0 0 0 0 0 0 0 0 0 0 0 0 0 0 0 0 0 0 0 0 0 0 0 0 0 0 0
1 1 1 0 0 1 1 1 1 1 1 1 0 0 0 0 0 0 0 0 0 0 0 0 0 0 0 0 0 0 0 0 0 0 0 0 0 0 0 0 0 0 0
1 1 1 1 1 1 1 1 1 1 1 1 0 0 0 0 0 0 0 0 0 0 0 0 0 0 0 0 0 0 0 0 0 0 0 0 0 0 0 0 0 0 0
1 1 1 1 1 1 1 1 1 1 1 0 0 0 0 0 0 0 0 0 0 0 0 0 0 0 0 0 0 0 0 0 0 0 0 0 0 0 0 0 0 0 0
1 1 1 1 1 1 1 1 1 1 0 0 0 0 0 0 0 0 0 0 0 0 0 0 0 0 0 0 0 0 0 0 0 0 0 0 0 0 0 0 0 0 0
Wind_Speed_500mb
38 40 43 42 40 37 34 31 29 28 26 23 21 20 18 17 17 17 17 18 18 17 17 16 16 15 16 17 18 17 16 15 13 10 9 11 13 14 14 14 15 14 28
45 44 44 44 42 38 34 30 29 28 25 20 17 15 14 13 14 15 15 15 15 15 15 14 16 19 19 16 14 12 10 8 6 5 8 16 24 21 21 21 20 18 22
47 46 46 44 42 38 34 32 30 27 22 18 16 15 13 13 13 14 13 14 13 13 15 19 18 16 13 10 7 4 2 2 4 4 9 13 13 22 24 26 26 26 27
46 46 46 44 40 38 33 30 28 25 20 17 15 12 12 13 13 13 13 12 15 19 18 17 15 11 8 4 1 2 2 4 7 8 14 13 14 28 27 30 31 31 30
45 43 45 43 40 36 31 27 24 21 17 14 11 10 12 13 12 12 12 16 18 19 18 16 12 9 5 4 5 5 8 11 14 17 12 16 20 26 33 37 38 39 38
42 41 44 43 39 34 29 25 22 18 14 11 11 12 13 13 12 11 15 18 18 17 15 14 12 10 9 9 11 13 16 18 17 18 22 24 27 38 46 44 45 44 42
40 38 45 43 37 32 27 24 22 19 16 14 13 13 13 13 11 15 18 19 19 18 17 16 15 15 17 17 18 22 26 30 30 26 27 31 32 49 56 56 54 51 50
37 36 40 41 36 32 28 25 23 20 18 16 14 14 14 14 15 18 19 19 20 19 19 18 20 22 23 25 30 34 37 39 36 36 35 37 47 58 61 63 62 60 57
35 36 36 40 38 35 31 27 24 21 19 18 17 17 17 16 18 21 22 22 22 22 22 22 24 26 29 35 39 42 45 48 50 39 42 44 52 64 67 67 66 66 64
34 34 33 35 36 36 32 29 25 23 21 20 20 20 19 19 21 23 23 25 25 25 25 27 30 34 39 43 46 49 52 57 43 45 45 47 64 71 73 75 71 66 64
33 33 31 31 31 30 27 28 28 26 26 24 23 21 20 15 18 22 26 28 28 28 30 32 36 40 44 48 50 53 58 41 44 47 45 55 70 69 67 65 65 60 57
32 33 31 32 30 27 25 23 26 21 21 20 19 21 17 19 20 19 29 29 31 32 35 39 40 39 39 29 36 48 41 46 48 43 40 58 62 62 61 61 61 57 50
29 30 31 32 32 28 24 23 20 21 21 21 25 24 20 18 19 18 18 20 29 32 22 28 32 25 39 49 43 47 45 43 39 37 37 63 66 65 59 51 47 33 30
30 27 27 28 29 29 23 22 22 21 22 20 21 28 28 21 22 20 15 19 21 18 27 29 26 47 52 62 56 50 44 37 36 37 37 59 60 55 49 44 41 34 32
27 29 28 31 28 28 33 24 24 23 24 20 26 26 27 21 23 22 23 17 22 28 27 37 39 44 54 48 36 38 38 41 37 37 35 47 55 41 36 35 32 32 27
30 27 28 29 29 31 30 32 29 29 25 28 21 23 30 25 30 23 26 30 33 37 50 49 52 53 52 35 34 36 39 38 36 36 32 30 44 39 33 32 33 32 33
32 31 32 32 30 33 34 33 34 30 25 24 23 34 31 28 32 28 33 39 40 47 46 49 51 32 32 33 36 39 38 37 36 34 30 25 25 36 41 39 35 35 35
35 33 37 34 37 38 41 39 35 32 30 26 30 34 34 35 37 36 39 40 46 46 49 47 29 30 31 35 38 39 39 38 37 32 25 22 22 21 27 37 44 36 36
39 35 34 38 38 43 43 46 42 38 36 28 31 31 35 35 36 30 35 43 45 46 41 31 25 30 35 36 37 41 39 36 32 24 29 20 20 23 27 31 42 39 31
39 36 37 38 40 50 43 46 39 38 32 35 29 26 36 33 33 33 38 40 42 35 20 26 35 33 33 34 39 38 38 33 22 25 24 30 35 31 32 35 34 28 34
46 48 48 44 45 48 47 40 35 30 27 27 29 38 31 33 32 31 41 41 34 22 30 30 27 30 34 33 36 36 37 26 20 13 31 34 30 32 31 34 39 34 33
46 49 50 47 49 48 41 32 28 27 22 22 29 30 31 27 31 39 35 25 29 22 24 26 28 32 31 28 31 38 29 27 13 32 34 28 18 24 34 33 32 38 38
44 46 45 42 42 37 36 41 40 37 34 31 26 26 25 30 36 30 31 30 31 32 22 26 26 27 29 27 25 25 24 23 43 22 33 32 26 36 34 34 38 34 41
29 35 36 37 31 29 30 32 32 23 21 19 19 23 29 27 26 28 30 32 35 29 31 23 23 25 24 28 27 25 29 34 41 36 35 37 37 38 36 38 37 35 35
34 27 31 29 27 26 30 28 23 21 25 24 24 24 19 21 26 30 32 34 35 25 22 27 21 22 22 26 27 28 29 29 31 36 47 43 44 37 35 36 40 34 36
27 28 30 30 30 30 30 28 25 28 21 18 15 10 11 16 23 29 29 31 31 25 19 16 17 18 20 18 18 20 24 27 31 34 41 46 49 42 42 37 31 29 33
Wind_Direction_500mb
166 170 161 163 165 164 163 161 162 161 158 152 146 142 135 125 116 114 113 112 112 114 114 114 112 106 100 95 91 88 82 75 75 71 53 35 13 359 348 334 323 329 289
165 171 165 165 166 165 164 162 163 162 158 153 148 138 128 121 116 115 113 115 119 120 120 117 110 107 104 105 102 97 88 77 63 45 28 15 350 342 331 320 312 296 287
166 173 169 168 168 168 166 165 165 164 163 160 155 148 140 133 128 128 131 133 134 136 132 125 121 119 118 113 105 98 61 352 344 351 6 7 331 326 330 327 322 310 290
167 173 174 172 173 172 170 169 169 168 167 166 161 152 147 144 145 143 146 149 145 138 136 135 137 143 148 155 182 283 315 356 358 340 0 334 346 319 328 321 314 310 308
166 170 181 177 177 175 176 176 177 175 175 172 165 163 162 157 156 159 161 153 151 150 153 158 171 183 203 252 282 311 322 328 337 2 314 311 332 302 322 322 314 304 298
168 174 184 182 181 180 181 182 185 184 187 187 186 188 179 174 179 175 167 165 165 169 175 188 207 226 249 275 277 288 299 311 327 308 307 307 325 293 317 318 318 312 298
171 177 186 186 186 186 187 190 196 198 203 205 203 201 193 193 195 188 183 182 185 192 204 219 238 255 264 276 287 295 300 304 307 300 298 307 303 299 311 312 312 310 305
172 175 185 189 191 194 197 200 205 207 210 212 211 213 212 211 207 198 199 202 208 216 231 247 259 269 280 288 295 300 302 303 309 301 298 302 291 296 304 304 305 303 299
172 173 187 192 195 199 204 206 209 212 216 217 220 219 221 225 217 212 215 221 228 239 250 261 273 284 292 298 302 305 305 304 304 296 297 299 282 296 300 297 295 294 292
173 182 185 185 196 200 204 207 211 217 220 222 227 229 232 230 227 226 230 239 243 253 262 273 286 293 299 302 303 305 306 306 308 296 296 291 285 296 296 296 295 292 288
177 184 184 187 196 193 203 213 213 215 219 223 230 236 238 232 242 240 240 245 251 262 274 285 295 300 304 306 306 306 307 306 300 298 293 282 289 297 297 296 295 295 290
182 187 188 188 194 193 197 208 211 218 223 226 231 236 233 232 228 220 247 251 261 271 283 289 295 300 308 303 306 312 311 304 302 297 297 283 296 299 299 298 298 295 288
186 190 193 194 194 192 197 203 203 210 216 226 231 235 232 235 249 239 253 268 274 280 294 299 307 305 300 306 307 305 305 305 302 296 295 290 302 304 303 297 293 290 278
188 192 195 201 200 193 199 208 208 209 220 223 233 240 237 244 250 235 243 252 276 272 282 295 295 299 308 306 303 306 306 305 298 296 298 291 302 302 299 297 293 290 275
186 195 197 197 209 216 213 209 209 213 228 226 239 249 247 242 246 261 259 263 270 287 290 295 300 296 305 310 307 302 302 303 302 304 298 294 303 305 302 300 297 293 296
197 204 200 204 217 220 226 229 230 231 227 238 236 244 253 249 253 259 276 280 285 289 290 302 298 305 307 307 307 304 305 306 301 297 294 293 298 310 309 307 306 305 304
212 205 210 214 225 225 232 235 235 236 229 230 236 255 259 257 258 254 273 281 284 288 298 299 304 306 309 309 309 307 304 301 298 290 293 284 291 313 313 309 302 305 305
210 218 218 219 229 231 233 238 234 233 233 234 245 259 257 258 259 263 274 279 286 291 300 303 302 308 308 306 306 306 302 297 294 287 288 279 287 292 304 305 309 309 306
218 216 222 234 230 243 243 241 237 235 234 233 244 250 254 254 260 268 281 284 286 294 303 305 302 308 309 307 305 305 300 295 292 283 270 285 292 299 291 298 310 321 310
217 222 227 239 237 238 239 240 232 235 229 238 239 234 249 250 262 273 278 285 293 304 298 293 304 306 308 310 305 307 303 297 285 287 287 276 278 291 295 287 294 303 301
228 235 240 242 243 241 237 229 222 221 220 227 236 250 255 258 268 278 287 292 298 299 293 304 308 311 311 310 314 310 310 290 294 280 310 290 286 291 287 295 298 294 293
233 239 243 246 246 244 234 217 212 210 214 219 240 246 252 264 276 286 289 293 291 295 297 302 308 313 314 311 313 320 324 306 285 300 290 304 300 292 299 293 288 294 288
234 240 240 239 242 236 215 221 229 235 237 237 239 246 260 276 282 286 295 295 297 307 299 296 304 308 309 314 308 312 322 308 310 308 304 292 296 302 297 299 298 296 295
221 225 225 228 228 224 215 218 229 221 200 204 214 250 273 272 282 290 294 298 300 299 299 307 308 303 308 308 309 303 293 295 304 306 306 299 299 302 298 298 298 293 301
217 206 207 203 199 200 201 206 206 185 204 231 248 264 254 279 283 291 298 301 304 312 297 304 304 300 303 301 306 305 306 307 302 303 307 308 307 308 304 299 297 291 289
180 182 190 184 190 197 201 205 190 210 225 230 226 228 260 279 295 298 303 307 309 304 310 307 298 304 296 301 307 317 312 313 314 315 311 310 312 315 310 307 306 282 291
Wind_Speed_850mb
38 40 43 42 40 37 34 31 29 28 26 23 21 20 18 17 17 17 17 18 18 17 17 16 16 15 16 17 18 17 16 15 13 10 9 11 13 14 14 14 15 14 28
45 44 44 44 42 38 34 30 29 28 25 20 17 15 14 13 14 15 15 15 15 15 15 14 16 19 19 16 14 12 10 8 6 5 8 16 24 21 21 21 20 18 22
47 46 46 44 42 38 34 32 30 27 22 18 16 15 13 13 13 14 13 14 13 13 15 19 18 16 13 10 7 4 2 2 4 4 9 13 13 22 24 26 26 26 27
46 46 46 44 40 38 33 30 28 25 20 17 15 12 12 13 13 13 13 12 15 19 18 17 15 11 8 4 1 2 2 4 7 8 14 13 14 28 27 30 31 31 30
45 43 45 43 40 36 31 27 24 21 17 14 11 10 12 13 12 12 12 16 18 19 18 16 12 9 5 4 5 5 8 11 14 17 12 16 20 26 33 37 38 39 38
42 41 44 43 39 34 29 25 22 18 14 11 11 12 13 13 12 11 15 18 18 17 15 14 12 10 9 9 11 13 16 18 17 18 22 24 27 38 46 44 45 44 42
40 38 45 43 37 32 27 24 22 19 16 14 13 13 13 13 11 15 18 19 19 18 17 16 15 15 17 17 18 22 26 30 30 26 27 31 32 49 56 56 54 51 50
37 36 40 41 36 32 28 25 23 20 18 16 14 14 14 14 15 18 19 19 20 19 19 18 20 22 23 25 30 34 37 39 36 36 35 37 47 58 61 63 62 60 57
35 36 36 40 38 35 31 27 24 21 19 18 17 17 17 16 18 21 22 22 22 22 22 22 24 26 29 35 39 42 45 48 50 39 42 44 52 64 67 67 66 66 64
34 34 33 35 36 36 32 29 25 23 21 20 20 20 19 19 21 23 23 25 25 25 25 27 30 34 39 43 46 49 52 57 43 45 45 47 64 71 73 75 71 66 64
33 33 31 31 31 30 27 28 28 26 26 24 23 21 20 15 18 22 26 28 28 28 30 32 36 40 44 48 50 53 58 41 44 47 45 55 70 69 67 65 65 60 57
32 33 31 32 30 27 25 23 26 21 21 20 19 21 17 19 20 19 29 29 31 32 35 39 40 39 39 29 36 48 41 46 48 43 40 58 62 62 61 61 61 57 50
29 30 31 32 32 28 24 23 20 21 21 21 25 24 20 18 19 18 18 20 29 32 22 28 32 25 39 49 43 47 45 43 39 37 37 63 66 65 59 51 47 33 30
30 27 27 28 29 29 23 22 22 21 22 20 21 28 28 21 22 20 15 19 21 18 27 29 26 47 52 62 56 50 44 37 36 37 37 59 60 55 49 44 41 34 32
27 29 28 31 28 28 33 24 24 23 24 20 26 26 27 21 23 22 23 17 22 28 27 37 39 44 54 48 36 38 38 41 37 37 35 47 55 41 36 35 32 32 27
30 27 28 29 29 31 30 32 29 29 25 28 21 23 30 25 30 23 26 30 33 37 50 49 52 53 52 35 34 36 39 38 36 36 32 30 44 39 33 32 33 32 33
32 31 32 32 30 33 34 33 34 30 25 24 23 34 31 28 32 28 33 39 40 47 46 49 51 32 32 33 36 39 38 37 36 34 30 25 25 36 41 39 35 35 35
35 33 37 34 37 38 41 39 35 32 30 26 30 34 34 35 37 36 39 40 46 46 49 47 29 30 31 35 38 39 39 38 37 32 25 22 22 21 27 37 44 36 36
39 35 34 38 38 43 43 46 42 38 36 28 31 31 35 35 36 30 35 43 45 46 41 31 25 30 35 36 37 41 39 36 32 24 29 20 20 23 27 31 42 39 31
39 36 37 38 40 50 43 46 39 38 32 35 29 26 36 33 33 33 38 40 42 35 20 26 35 33 33 34 39 38 38 33 22 25 24 30 35 31 32 35 34 28 34
46 48 48 44 45 48 47 40 35 30 27 27 29 38 31 33 32 31 41 41 34 22 30 30 27 30 34 33 36 36 37 26 20 13 31 34 30 32 31 34 39 34 33
46 49 50 47 49 48 41 32 28 27 22 22 29 30 31 27 31 39 35 25 29 22 24 26 28 32 31 28 31 38 29 27 13 32 34 28 18 24 34 33 32 38 38
44 46 45 42 42 37 36 41 40 37 34 31 26 26 25 30 36 30 31 30 31 32 22 26 26 27 29 27 25 25 24 23 43 22 33 32 26 36 34 34 38 34 41
29 35 36 37 31 29 30 32 32 23 21 19 19 23 29 27 26 28 30 32 35 29 31 23 23 25 24 28 27 25 29 34 41 36 35 37 37 38 36 38 37 35 35
34 27 31 29 27 26 30 28 23 21 25 24 24 24 19 21 26 30 32 34 35 25 22 27 21 22 22 26 27 28 29 29 31 36 47 43 44 37 35 36 40 34 36
27 28 30 30 30 30 30 28 25 28 21 18 15 10 11 16 23 29 29 31 31 25 19 16 17 18 20 18 18 20 24 27 31 34 41 46 49 42 42 37 31 29 33
Wind_Direction_850mb
166 170 161 163 165 164 163 161 162 161 158 152 146 142 135 125 116 114 113 112 112 114 114 114 112 106 100 95 91 88 82 75 75 71 53 35 13 359 348 334 323 329 289
165 171 165 165 166 165 164 162 163 162 158 153 148 138 128 121 116 115 113 115 119 120 120 117 110 107 104 105 102 97 88 77 63 45 28 15 350 342 331 320 312 296 287
166 173 169 168 168 168 166 165 165 164 163 160 155 148 140 133 128 128 131 133 134 136 132 125 121 119 118 113 105 98 61 352 344 351 6 7 331 326 330 327 322 310 290
167 173 174 172 173 172 170 169 169 168 167 166 161 152 147 144 145 143 146 149 145 138 136 135 137 143 148 155 182 283 315 356 358 340 0 334 346 319 328 321 314 310 308
166 170 181 177 177 175 176 176 177 175 175 172 165 163 162 157 156 159 161 153 151 150 153 158 171 183 203 252 282 311 322 328 337 2 314 311 332 302 322 322 314 304 298
168 174 184 182 181 180 181 182 185 184 187 187 186 188 179 174 179 175 167 165 165 169 175 188 207 226 249 275 277 288 299 311 327 308 307 307 325 293 317 318 318 312 298
171 177 186 186 186 186 187 190 196 198 203 205 203 201 193 193 195 188 183 182 185 192 204 219 238 255 264 276 287 295 300 304 307 300 298 307 303 299 311 312 312 310 305
172 175 185 189 191 194 197 200 205 207 210 212 211 213 212 211 207 198 199 202 208 216 231 247 259 269 280 288 295 300 302 303 309 301 298 302 291 296 304 304 305 303 299
172 173 187 192 195 199 204 206 209 212 216 217 220 219 221 225 217 212 215 221 228 239 250 261 273 284 292 298 302 305 305 304 304 296 297 299 282 296 300 297 295 294 292
173 182 185 185 196 200 204 207 211 217 220 222 227 229 232 230 227 226 230 239 243 253 262 273 286 293 299 302 303 305 306 306 308 296 296 291 285 296 296 296 295 292 288
177 184 184 187 196 193 203 213 213 215 219 223 230 236 238 232 242 240 240 245 251 262 274 285 295 300 304 306 306 306 307 306 300 298 293 282 289 297 297 296 295 295 290
182 187 188 188 194 193 197 208 211 218 223 226 231 236 233 232 228 220 247 251 261 271 283 289 295 300 308 303 306 312 311 304 302 297 297 283 296 299 299 298 298 295 288
186 190 193 194 194 192 197 203 203 210 216 226 231 235 232 235 249 239 253 268 274 280 294 299 307 305 300 306 307 305 305 305 302 296 295 290 302 304 303 297 293 290 278
188 192 195 201 200 193 199 208 208 209 220 223 233 240 237 244 250 235 243 252 276 272 282 295 295 299 308 306 303 306 306 305 298 296 298 291 302 302 299 297 293 290 275
186 195 197 197 209 216 213 209 209 213 228 226 239 249 247 242 246 261 259 263 270 287 290 295 300 296 305 310 307 302 302 303 302 304 298 294 303 305 302 300 297 293 296
197 204 200 204 217 220 226 229 230 231 227 238 236 244 253 249 253 259 276 280 285 289 290 302 298 305 307 307 307 304 305 306 301 297 294 293 298 310 309 307 306 305 304
212 205 210 214 225 225 232 235 235 236 229 230 236 255 259 257 258 254 273 281 284 288 298 299 304 306 309 309 309 307 304 301 298 290 293 284 291 313 313 309 302 305 305
210 218 218 219 229 231 233 238 234 233 233 234 245 259 257 258 259 263 274 279 286 291 300 303 302 308 308 306 306 306 302 297 294 287 288 279 287 292 304 305 309 309 306
218 216 222 234 230 243 243 241 237 235 234 233 244 250 254 254 260 268 281 284 286 294 303 305 302 308 309 307 305 305 300 295 292 283 270 285 292 299 291 298 310 321 310
217 222 227 239 237 238 239 240 232 235 229 238 239 234 249 250 262 273 278 285 293 304 298 293 304 306 308 310 305 307 303 297 285 287 287 276 278 291 295 287 294 303 301
228 235 240 242 243 241 237 229 222 221 220 227 236 250 255 258 268 278 287 292 298 299 293 304 308 311 311 310 314 310 310 290 294 280 310 290 286 291 287 295 298 294 293
233 239 243 246 246 244 234 217 212 210 214 219 240 246 252 264 276 286 289 293 291 295 297 302 308 313 314 311 313 320 324 306 285 300 290 304 300 292 299 293 288 294 288
234 240 240 239 242 236 215 221 229 235 237 237 239 246 260 276 282 286 295 295 297 307 299 296 304 308 309 314 308 312 322 308 310 308 304 292 296 302 297 299 298 296 295
221 225 225 228 228 224 215 218 229 221 200 204 214 250 273 272 282 290 294 298 300 299 299 307 308 303 308 308 309 303 293 295 304 306 306 299 299 302 298 298 298 293 301
217 206 207 203 199 200 201 206 206 185 204 231 248 264 254 279 283 291 298 301 304 312 297 304 304 300 303 301 306 305 306 307 302 303 307 308 307 308 304 299 297 291 289
180 182 190 184 190 197 201 205 190 210 225 230 226 228 260 279 295 298 303 307 309 304 310 307 298 304 296 301 307 317 312 313 314 315 311 310 312 315 310 307 306 282 291